sat.trackr.live / text

‹ back to catalog

STARLINK-5520

NORAD 57219 · 2023-094B

PAYLOAD ACTIVE UNKNOWN

§ Identity

Operator
Country
US
Launch date
2023-07-07
Launch site
AFWTR
Launch vehicle
Mass (kg)
RCS (m²)

Purposes: comms

External: N2YO · Heavens-Above · Gunter

§ Orbital elements

Epoch: 2026-05-24T18:45:42.974496Z

Period
94.27 min
Inclination
43.0026°
Eccentricity
0.0001320
Mean motion
15.27588827 rev/d
Perigee alt
482.1 km
Apogee alt
483.9 km
Semi-major
6,861.2 km
B*
8.2749e-6
RAAN
324.3255°
Arg perigee
270.1915°
Mean anomaly
89.8786°
Rev number
15,871

§ Raw data

STARLINK-55201 57219U 23094B   26144.78174739 -.00000034  00000+0  82749-5 0  99972 57219  43.0026 324.3255 0001320 270.1915  89.8786 15.27588827158717

JSON: /api/v1/satellites/57219 · /tle

For live sub-satellite position, see the globe view (requires WebGL).

§ Visibility from observer

Set your observer location to see the next 7 days of passes ≥ 10°. The values pass through the URL so the page stays shareable.

No JS? Fill the form by hand. The geolocation button needs JavaScript.